Weather History for Snyder, TX

Change the Weather History Date:

Saturday, September 14, 2013

  Actual Average Record
Temperature  
Mean Temperature 78 °F -  
Max Temperature 90 °F 84 °F 102 °F (1918)
Min Temperature 67 °F 60 °F 44 °F (1945)
Cooling Degree Days 14    
Growing Degree Days 28 (Base 50)    
Moisture  
Dew Point 60 °F    
Average Humidity 56    
Maximum Humidity 90    
Minimum Humidity 28    
Precipitation  
Precipitation 0.00 in - - ()
Sea Level Pressure  
Sea Level Pressure 29.99 in    
Wind  
Wind Speed 7 mph (ESE)    
Max Wind Speed 17 mph    
Max Gust Speed 23 mph    
Visibility 10 miles    
Events      
Averages and records for this station are not official NWS values.
T = Trace of Precipitation, MM = Missing Value Source: NWS Daily Summary

Daily Weather History Graph

Daily Weather History Graph

Search for Another Location

Airport:

Trip Planner

Search our weather history database for the weather conditions in past years. The results will help you decide how hot, cold, wet, or windy it might be!

Date:

Astronomy

Sep. 14, 2013 Rise Set
Actual Time 7:27 AM CDT 7:50 PM CDT
Civil Twilight 7:02 AM CDT 8:15 PM CDT
Nautical Twilight 6:33 AM CDT 8:44 PM CDT
Astronomical Twilight 6:03 AM CDT 9:13 PM CDT
Moon 4:21 PM CDT (9/14) 2:14 AM CDT (9/14)
Length of Visible Light 13h 13m
Length of Day
12h 23m
Waxing Gibbous, 72% of the Moon is Illuminated
Sep 14
Waxing Gibbous
Sep 19
Full
Sep 26
Last Quarter
Oct 4
New
Oct 11
First Quarter

Hourly Weather History & Observations

Time (CDT) Temp. Heat Index Dew Point Humidity Pressure Visibility Wind Dir Wind Speed Gust Speed Precip Events Conditions
12:15 AM 77.0 °F - 65.5 °F 67% 30.00 in 10.0 mi ENE 10.4 mph - N/A   Clear
12:35 AM 77.0 °F - 65.7 °F 68% 30.00 in 10.0 mi NE 8.1 mph - N/A   Clear
12:55 AM 75.6 °F - 64.8 °F 69% 30.00 in 10.0 mi ENE 9.2 mph - N/A   Clear
1:15 AM 74.5 °F - 64.4 °F 71% 30.00 in 10.0 mi ENE 8.1 mph - N/A   Clear
1:35 AM 74.5 °F - 64.9 °F 72% 29.99 in 10.0 mi NE 8.1 mph - N/A   Clear
1:55 AM 74.5 °F - 65.5 °F 73% 29.99 in 10.0 mi NE 8.1 mph - N/A   Clear
2:15 AM 74.5 °F - 66.2 °F 75% 29.99 in 10.0 mi NE 6.9 mph - N/A   Clear
2:35 AM 74.5 °F - 66.7 °F 77% 29.99 in 10.0 mi NE 6.9 mph - N/A   Clear
2:55 AM 74.5 °F - 67.1 °F 78% 29.98 in 10.0 mi NE 6.9 mph - N/A   Clear
3:15 AM 72.7 °F - 65.8 °F 79% 29.98 in 10.0 mi NE 6.9 mph - N/A   Clear
3:35 AM 72.0 °F - 65.7 °F 80% 29.98 in 10.0 mi NE 6.9 mph - N/A   Clear
3:55 AM 71.4 °F - 65.8 °F 82% 29.98 in 10.0 mi NE 5.8 mph - N/A   Clear
4:15 AM 70.7 °F - 65.3 °F 83% 29.97 in 10.0 mi NNE 3.5 mph - N/A   Clear
4:35 AM 70.2 °F - 64.8 °F 83% 29.97 in 10.0 mi NE 4.6 mph - N/A   Clear
4:55 AM 69.4 °F - 64.6 °F 84% 29.98 in 10.0 mi NE 5.8 mph - N/A   Clear
5:15 AM 69.4 °F - 64.8 °F 85% 29.98 in 10.0 mi NE 5.8 mph - N/A   Clear
5:35 AM 69.4 °F - 65.3 °F 87% 29.98 in 10.0 mi ENE 4.6 mph - N/A   Clear
5:55 AM 69.4 °F - 65.5 °F 87% 29.98 in 10.0 mi NE 4.6 mph - N/A   Clear
6:15 AM 69.4 °F - 65.5 °F 87% 29.98 in 10.0 mi NNE 3.5 mph - N/A   Clear
6:35 AM 68.0 °F - 64.4 °F 88% 29.98 in 7.0 mi NNW 4.6 mph - N/A   Clear
6:55 AM 67.1 °F - 64.0 °F 90% 29.99 in 7.0 mi North 3.5 mph - N/A   Clear
7:15 AM 67.1 °F - 64.0 °F 90% 29.99 in 7.0 mi North 3.5 mph - N/A   Clear
7:35 AM 67.5 °F - 64.4 °F 90% 30.00 in 7.0 mi Calm Calm - N/A   Clear
7:55 AM 69.3 °F - 66.0 °F 89% 30.01 in 7.0 mi Calm Calm - N/A   Clear
8:15 AM 69.3 °F - 66.2 °F 90% 30.02 in 7.0 mi North 3.5 mph - N/A   Clear
8:35 AM 69.4 °F - 66.2 °F 89% 30.02 in 7.0 mi Calm Calm - N/A   Clear
8:55 AM 69.8 °F - 65.3 °F 86% 30.02 in 7.0 mi Calm Calm - N/A   Clear
9:15 AM 72.9 °F - 64.8 °F 76% 30.02 in 10.0 mi Calm Calm - N/A   Clear
9:35 AM 74.5 °F - 62.8 °F 67% 30.03 in 10.0 mi Calm Calm - N/A   Clear
9:55 AM 76.1 °F - 61.9 °F 61% 30.03 in 10.0 mi SW 4.6 mph - N/A   Clear
10:15 AM 77.2 °F - 61.5 °F 58% 30.04 in 10.0 mi SSW 4.6 mph - N/A   Scattered Clouds
10:35 AM 79.2 °F - 61.9 °F 55% 30.05 in 10.0 mi SSW 8.1 mph - N/A   Scattered Clouds
10:55 AM 79.7 °F - 61.3 °F 53% 30.05 in 10.0 mi WSW 4.6 mph - N/A   Mostly Cloudy
11:15 AM 79.9 °F - 60.8 °F 52% 30.05 in 10.0 mi SSW 5.8 mph - N/A   Mostly Cloudy
11:35 AM 80.4 °F 81.3 °F 60.6 °F 51% 30.05 in 10.0 mi SW 5.8 mph - N/A   Scattered Clouds
11:55 AM 81.0 °F 81.5 °F 59.4 °F 48% 30.05 in 10.0 mi WSW 3.5 mph - N/A   Scattered Clouds
12:15 PM 81.7 °F 81.8 °F 58.6 °F 45% 30.04 in 10.0 mi SW 4.6 mph - N/A   Scattered Clouds
12:35 PM 82.4 °F 82.3 °F 58.3 °F 44% 30.04 in 10.0 mi SW 5.8 mph - N/A   Clear
12:55 PM 83.3 °F 82.9 °F 58.3 °F 42% 30.03 in 10.0 mi Calm Calm - N/A   Scattered Clouds
1:15 PM 83.7 °F 83.1 °F 57.6 °F 41% 30.03 in 10.0 mi SSE 8.1 mph - N/A   Scattered Clouds
1:35 PM 85.6 °F 85.0 °F 58.6 °F 40% 30.02 in 10.0 mi SSE 9.2 mph - N/A   Scattered Clouds
1:55 PM 85.1 °F 84.4 °F 58.5 °F 40% 30.01 in 10.0 mi SE 6.9 mph - N/A   Scattered Clouds
2:15 PM 89.1 °F 88.5 °F 59.5 °F 37% 30.00 in 10.0 mi SSE 9.2 mph 16.1 mph N/A   Scattered Clouds
2:35 PM 88.5 °F 87.5 °F 58.5 °F 36% 29.99 in 10.0 mi SE 6.9 mph - N/A   Scattered Clouds
2:55 PM 89.6 °F 87.9 °F 56.5 °F 32% 29.98 in 10.0 mi ESE 8.1 mph 18.4 mph N/A   Scattered Clouds
3:15 PM 89.6 °F 87.9 °F 55.8 °F 32% 29.97 in 10.0 mi SE 17.3 mph 21.9 mph N/A   Scattered Clouds
3:35 PM 89.8 °F 87.5 °F 54.0 °F 29% 29.95 in 10.0 mi SE 12.7 mph 18.4 mph N/A   Scattered Clouds
3:55 PM 89.8 °F 87.7 °F 54.3 °F 30% 29.95 in 10.0 mi East 9.2 mph - N/A   Scattered Clouds
4:15 PM 89.6 °F 87.5 °F 54.3 °F 30% 29.94 in 10.0 mi SE 15.0 mph 23.0 mph N/A   Clear
4:35 PM 89.6 °F 87.3 °F 53.6 °F 29% 29.94 in 10.0 mi SE 11.5 mph 16.1 mph N/A   Clear
4:55 PM 90.0 °F 87.7 °F 54.0 °F 29% 29.94 in 10.0 mi SE 11.5 mph - N/A   Clear
5:15 PM 90.1 °F 87.9 °F 54.0 °F 29% 29.93 in 10.0 mi ESE 13.8 mph 20.7 mph N/A   Scattered Clouds
5:35 PM 89.8 °F - 52.5 °F 28% 29.93 in 10.0 mi SE 10.4 mph - N/A   Mostly Cloudy
5:55 PM 89.6 °F - 52.3 °F 28% 29.93 in 10.0 mi SE 8.1 mph - N/A   Mostly Cloudy
6:15 PM 89.6 °F - 52.5 °F 28% 29.94 in 10.0 mi South 10.4 mph - N/A   Clear
6:35 PM 89.6 °F - 52.7 °F 28% 29.93 in 10.0 mi SE 13.8 mph - N/A   Clear
6:55 PM 89.6 °F - 52.3 °F 28% 29.94 in 10.0 mi ESE 11.5 mph - N/A   Clear
7:15 PM 89.6 °F 87.3 °F 53.2 °F 29% 29.94 in 10.0 mi ESE 13.8 mph - N/A   Clear
7:35 PM 89.6 °F 87.5 °F 54.3 °F 30% 29.94 in 10.0 mi ESE 11.5 mph - N/A   Clear
7:55 PM 88.5 °F 86.7 °F 54.9 °F 32% 29.94 in 10.0 mi SE 8.1 mph - N/A   Clear
8:15 PM 85.6 °F 84.0 °F 54.5 °F 34% 29.95 in 10.0 mi SE 8.1 mph - N/A   Clear
8:35 PM 83.7 °F 82.5 °F 54.5 °F 37% 29.95 in 10.0 mi SE 8.1 mph - N/A   Clear
8:55 PM 82.9 °F 82.1 °F 55.4 °F 39% 29.95 in 10.0 mi SE 6.9 mph - N/A   Clear
9:15 PM 82.0 °F 81.6 °F 56.1 °F 41% 29.96 in 10.0 mi SE 6.9 mph - N/A   Clear
9:35 PM 81.0 °F 80.9 °F 56.5 °F 43% 29.97 in 10.0 mi SE 6.9 mph - N/A   Clear
9:55 PM 80.8 °F 81.0 °F 57.4 °F 45% 29.98 in 10.0 mi SE 6.9 mph - N/A   Clear
10:15 PM 79.9 °F - 57.4 °F 46% 29.98 in 10.0 mi SE 9.2 mph - N/A   Clear
10:35 PM 79.7 °F - 57.7 °F 47% 29.98 in 10.0 mi SE 8.1 mph - N/A   Clear
10:55 PM 79.7 °F - 58.3 °F 48% 29.99 in 10.0 mi SE 8.1 mph - N/A   Clear
11:15 PM 79.7 °F - 58.8 °F 49% 29.99 in 10.0 mi SE 6.9 mph - N/A   Clear
11:35 PM 79.5 °F - 59.7 °F 51% 29.99 in 10.0 mi SE 6.9 mph - N/A   Clear
11:55 PM 79.0 °F - 59.7 °F 52% 29.99 in 10.0 mi SE 8.1 mph - N/A   Clear